ATLAS 28E R/B

Satellite information

Favourite Embed

Satellite Type and Status

ROCKET BODYIN ORBIT

Key statistics

Satellite ATLAS 28E R/B at a glance.

Uptime

13030

Days in orbit

Revolutions

≈ 14.8

Per day

Orbit

LEO

Low Earth Orbit

Inclination

89.9

Latest

Satellite identification and parameters

Extended collection of information and parameters for ATLAS 28E R/B.

Object identification

Identified? True

Debris? False

Object name: ATLAS 28E R/B

International designator: 1990-031D

Object number (NORAD): 20563

Object ID (CCSDS): 20563

Country: UNITED STATES OF AMERICA (US)

Current information (Y/N): Y

RCS size: MEDIUM

Orbital parameters

Period: 97.305 minutes

Inclination: 89.8675 deg

SMA: 7007.83 km

Apoapsis: 672.298 km

Periapsis: 587.092 km

RAAN: 259.6148 deg

Eccentricy: 0.0060793

Argument of periapsis: 125.9156 deg

Mean anomaly: 234.7731 deg

Mean motion: 14.79883099 rev/day

Mean motion (dot): 0.00002122 rev/day2

B* drag term: 0.00027045715 1/REarth

Two-line elements (TLE)

Creation date: Dec. 12, 2025, 10:14 a.m.

Reference frame: TEME

Reference center: EARTH

Epoch: Dec. 12, 2025, 6:46 a.m. UTC

TLE line 0: 0 ATLAS 28E R/B

TLE line 1: 1 20563U 90031D 25346.28243135 .00002122 00000-0 27046-3 0 9996

TLE line 2: 2 20563 89.8675 259.6148 0060793 125.9156 234.7731 14.79883099342903

Live tracking on map

Real-time ground track for satellite ATLAS 28E R/B.

In-orbit conjunctions

A list of the most updated potential collisions computed for object ATLAS 28E R/B.

Target Orbit TCA Probability of collision Miss distance Type
NOAA 16 DEB SSO 2025-07-12 12:15:43 0.0001414025 653.0 (m) DEBRIS
CZ-6A DEB SSO 2025-06-09 06:30:49 0.0001468164 342.0 (m) DEBRIS
COSMOS 2228 LEO 2024-07-22 22:34:21 0.0003280314 333.0 (m) PAYLOAD

Associated space launch

POGS & SSR was a satellite designed to measure the Earth's magnetic field. TEX and SCE studied ionospheric effects on RF transmissions.

ATLAS 28E R/B was lifted into orbit during the mission ‘Atlas E Altair | POGS & SSR, TEX, SCE’, on board a Atlas E Altair space rocket.

The launch took place on April 11, 1990, 3 p.m. from Space Launch Complex 3W.

For more information about the launch, click the button.

Launch to space Atlas E Altair | POGS & SSR, TEX, SCE
Atlas E Altair | POGS & SSR, TEX, SCE

Agency: N/A

Status: Launch Successful

Launch date: April 11, 1990, 3 p.m. UTC

Rocket: Atlas E Altair

Launch pad: Space Launch Complex 3W

Location: Vandenberg SFB, CA, USA

...

Latest news about this satellite

There are no fresh news available about this satellite. Check back as we update our databases every day.


Newsletter sign-up

Weekly statistics, charts and insights to help you stay on top of the space industry.